Wind_Speed
12 11 11 11 12 12 11 11 12 12 12 11 11 11 11 11 12 12 13 13 13 13 13 14 14 14 14 14 14 14 15 16 16 17 18 18 19 20
13 13 13 12 12 13 13 13 13 13 13 13 13 13 13 13 13 13 13 14 14 14 15 15 14 14 14 15 15 15 16 17 18 18 19 20 21 21
14 14 14 15 15 15 15 15 14 14 14 14 14 15 15 15 14 14 15 15 15 15 16 15 15 16 16 16 17 17 18 18 18 19 20 21 21 21
14 15 15 15 15 16 16 16 16 16 16 16 15 16 16 16 16 16 16 17 17 17 17 17 17 18 18 18 19 19 19 19 20 20 21 21 22 23
15 16 16 17 17 17 17 17 18 18 18 18 17 18 18 18 18 18 18 18 18 18 18 19 19 19 20 20 20 20 21 21 21 21 22 22 23 24
17 17 18 18 19 19 19 19 19 19 19 19 19 19 19 20 20 20 20 19 20 20 20 20 21 21 21 21 21 21 22 22 22 22 23 23 24 25
19 19 19 20 20 20 20 20 20 20 21 21 21 21 21 21 21 22 22 21 21 21 22 22 22 22 23 22 22 22 23 22 22 23 24 25 25 26
19 20 20 21 21 21 21 21 22 22 22 23 23 22 22 22 23 23 23 23 23 23 23 24 24 23 23 23 24 24 24 24 24 24 25 25 26 26
20 21 21 22 22 22 22 22 22 23 23 24 24 24 23 24 24 24 24 23 23 24 24 24 24 24 24 23 24 24 25 25 25 25 26 27 27 27
23 22 22 23 23 23 23 23 24 24 24 25 25 24 24 24 24 24 24 24 24 23 24 23 23 23 22 23 24 25 25 26 26 26 26 27 27 27
23 24 24 24 24 24 24 25 25 25 25 25 25 25 25 25 26 25 25 25 25 24 25 25 24 23 23 23 24 25 26 27 27 27 27 27 27 28
24 24 24 25 25 25 26 26 26 26 26 26 26 26 27 27 27 26 26 26 26 25 25 25 24 24 24 24 25 26 26 27 28 28 28 28 28 28
25 25 26 26 26 27 28 27 27 27 27 27 26 27 27 28 27 27 26 27 27 26 26 26 25 26 26 25 26 27 27 28 28 29 29 28 29 30
26 26 27 27 27 28 28 28 28 28 28 28 27 28 28 28 28 27 27 27 27 27 27 27 27 27 27 27 27 28 28 28 28 29 29 29 30 31
27 27 27 27 28 28 28 28 28 28 28 28 28 28 28 28 28 27 28 28 28 27 28 28 28 29 29 29 29 29 29 29 30 30 30 31 32 32
27 27 28 28 28 28 29 28 28 28 28 28 28 29 28 28 28 28 28 28 28 29 29 29 30 31 31 31 31 31 31 31 30 30 31 32 32 33
29 28 29 29 29 28 28 28 29 29 29 28 28 28 29 28 28 28 29 29 29 30 30 30 31 32 32 32 33 32 32 32 32 32 32 32 33 33
30 29 29 30 30 30 29 29 30 30 29 29 29 30 30 30 30 30 30 30 30 31 31 32 32 32 33 33 35 34 33 33 33 33 33 34 34 34
31 30 30 31 31 31 31 31 31 31 31 31 31 31 31 30 31 31 31 31 32 32 33 33 34 34 35 35 35 36 36 35 36 35 35 36 35 35
32 32 32 32 32 32 32 32 32 32 32 32 32 32 32 32 32 33 33 34 34 35 35 35 36 36 36 37 36 36 36 37 37 36 36 36 36 36
33 33 33 33 33 34 34 33 33 33 33 33 34 33 33 34 34 34 35 36 36 37 37 37 37 37 37 37 37 37 37 38 38 38 38 37 37 36
34 34 34 34 34 34 34 34 34 34 34 34 35 35 35 35 35 35 36 37 36 37 37 38 38 38 38 38 38 38 37 37 37 38 38 38 37 37
34 35 35 35 35 35 35 34 34 35 35 35 36 36 36 36 37 36 36 37 37 37 37 38 38 39 39 39 39 38 38 37 37 38 38 38 38 37
Wind_Direction
287 290 291 288 290 290 291 289 290 291 295 294 293 296 296 298 299 300 301 301 302 300 299 300 301 303 304 304 301 297 294 294 293 293 293 293 294 294
282 287 288 285 286 292 292 289 286 287 287 286 286 286 289 292 293 294 298 299 299 300 299 298 299 301 302 301 301 299 296 294 292 292 293 293 294 295
280 283 285 286 289 293 292 287 284 284 284 284 286 287 289 290 291 292 293 292 292 294 297 298 299 302 303 301 300 300 300 299 297 296 296 296 295 295
281 282 286 287 289 291 291 288 286 284 284 283 284 286 287 287 286 286 288 289 290 292 293 295 297 298 300 299 299 299 299 299 299 298 298 297 297 297
283 282 284 284 286 287 286 286 287 285 285 283 282 282 285 285 285 285 288 289 288 289 290 292 294 295 296 297 298 298 298 298 297 297 297 298 298 298
283 283 283 284 283 285 285 285 286 285 284 282 282 283 285 286 287 288 289 288 288 289 290 291 292 293 294 294 294 295 296 296 297 297 297 298 299 299
281 282 283 284 283 283 284 285 285 285 284 283 283 283 285 287 286 287 288 289 289 289 290 290 291 291 292 293 295 295 296 295 295 296 297 300 300 300
282 282 283 284 283 282 283 284 286 285 285 284 283 284 286 287 286 286 287 287 287 288 289 288 288 289 290 291 293 295 295 295 295 296 297 299 300 300
283 282 282 283 283 282 284 285 286 286 285 285 284 282 284 286 286 288 289 289 290 289 290 290 289 289 290 290 293 295 296 296 297 298 299 299 300 299
284 283 282 282 282 281 284 285 287 288 287 286 284 283 283 286 286 288 289 290 290 290 291 293 292 292 292 291 292 294 297 298 299 298 300 301 301 301
285 283 282 282 282 282 282 284 285 285 285 285 283 283 284 287 288 288 287 289 290 291 291 292 291 291 292 292 292 294 296 298 300 300 300 300 301 301
283 284 284 283 283 283 283 283 284 284 283 283 281 282 284 286 287 288 287 287 288 289 289 289 289 289 291 292 292 293 295 297 298 299 300 300 300 300
283 284 285 285 284 284 283 283 284 283 282 282 283 283 283 284 286 287 287 286 287 288 288 288 288 289 290 292 292 294 295 296 297 298 299 299 300 301
284 284 285 285 286 286 285 285 284 282 280 281 282 283 283 283 284 286 286 286 286 287 287 287 288 289 290 290 292 294 295 296 296 296 297 298 299 301
284 285 285 285 287 288 288 287 285 283 281 281 280 281 282 283 283 285 285 285 286 286 287 287 288 289 290 291 292 293 294 294 294 294 295 297 298 299
284 284 284 285 287 289 289 287 286 284 283 282 281 282 282 283 283 284 285 285 285 285 285 286 287 288 289 292 293 293 293 294 293 293 294 297 298 298
285 283 283 284 286 287 288 289 289 286 284 284 284 284 283 282 283 284 285 285 285 285 285 285 287 288 289 290 293 293 292 293 293 292 292 295 296 296
285 284 284 284 285 286 286 287 287 285 284 285 286 285 284 282 282 283 285 284 284 284 285 286 287 287 289 290 292 291 292 292 292 292 293 294 294 294
285 284 284 285 284 284 284 285 286 284 283 284 285 285 285 284 283 284 285 285 285 285 286 286 287 288 289 289 289 291 292 293 292 291 292 293 293 293
286 285 284 285 283 282 283 284 284 283 283 284 285 285 285 285 285 285 286 287 286 286 286 286 287 287 288 288 288 290 291 291 292 291 291 292 293 293
286 285 284 284 283 282 282 282 283 282 282 282 283 284 285 285 285 286 287 288 287 287 286 286 286 286 286 287 288 288 288 290 291 291 292 292 293 292
287 286 284 284 284 282 281 282 282 281 281 282 282 283 285 285 286 287 288 289 288 288 288 288 287 286 286 287 288 288 288 288 289 290 291 292 292 292
287 286 284 284 283 281 281 282 282 281 282 282 282 282 283 285 286 287 288 288 288 288 288 288 288 288 288 288 288 288 288 288 288 288 289 290 291 291
Height
5837 5836 5836 5836 5836 5836 5835 5835 5835 5834 5834 5833 5832 5831 5830 5830 5829 5828 5827 5826 5825 5823 5822 5821 5820 5819 5818 5817 5816 5815 5815 5814 5813 5812 5811 5810 5809 5808
5833 5833 5833 5833 5833 5832 5832 5831 5831 5831 5830 5830 5829 5828 5828 5827 5826 5825 5824 5823 5822 5820 5819 5818 5817 5816 5815 5813 5812 5811 5810 5809 5808 5807 5806 5805 5803 5802
5830 5830 5830 5829 5829 5828 5828 5828 5827 5827 5826 5826 5825 5824 5824 5823 5823 5822 5820 5819 5818 5817 5816 5814 5813 5812 5811 5809 5808 5807 5805 5804 5803 5802 5800 5799 5797 5796
5826 5826 5826 5825 5825 5825 5824 5824 5823 5823 5822 5822 5821 5820 5819 5819 5818 5817 5816 5815 5814 5812 5811 5810 5809 5807 5806 5805 5803 5802 5800 5799 5797 5796 5794 5793 5791 5789
5822 5821 5821 5821 5821 5820 5820 5819 5819 5818 5817 5817 5816 5816 5815 5814 5813 5812 5811 5810 5809 5807 5806 5805 5803 5802 5800 5799 5797 5796 5794 5793 5791 5790 5788 5786 5784 5782
5817 5817 5816 5816 5815 5815 5815 5814 5813 5813 5812 5812 5811 5810 5809 5808 5807 5806 5805 5804 5803 5802 5800 5799 5797 5796 5794 5793 5791 5790 5788 5786 5785 5783 5781 5779 5777 5775
5811 5811 5811 5810 5809 5809 5809 5808 5808 5807 5806 5806 5805 5804 5803 5802 5801 5800 5799 5798 5797 5795 5794 5792 5791 5789 5788 5786 5785 5783 5781 5779 5778 5776 5774 5772 5769 5767
5806 5805 5805 5804 5804 5803 5803 5803 5802 5801 5800 5799 5798 5797 5796 5795 5794 5793 5792 5790 5790 5789 5786 5785 5783 5782 5781 5779 5777 5776 5774 5772 5770 5768 5766 5764 5762 5759
5800 5799 5799 5798 5798 5797 5797 5796 5795 5794 5793 5792 5791 5790 5789 5787 5786 5785 5784 5782 5781 5780 5778 5777 5776 5774 5773 5771 5770 5768 5766 5765 5763 5761 5758 5756 5754 5751
5793 5793 5792 5791 5791 5790 5790 5789 5788 5787 5785 5784 5783 5782 5781 5779 5778 5777 5776 5775 5774 5772 5771 5769 5768 5767 5766 5764 5762 5761 5759 5757 5755 5753 5751 5748 5746 5743
5786 5786 5785 5784 5783 5783 5782 5782 5781 5779 5777 5776 5775 5774 5773 5771 5770 5769 5768 5767 5766 5765 5764 5762 5761 5760 5758 5757 5755 5753 5751 5749 5747 5745 5743 5740 5737 5735
5779 5778 5777 5776 5775 5774 5774 5773 5772 5771 5770 5768 5767 5766 5765 5764 5762 5761 5760 5759 5758 5757 5756 5754 5753 5752 5751 5749 5747 5745 5743 5741 5739 5737 5734 5732 5729 5727
5771 5770 5769 5768 5767 5766 5765 5764 5763 5762 5761 5760 5759 5758 5757 5756 5754 5753 5752 5751 5750 5748 5747 5746 5744 5743 5742 5741 5739 5737 5735 5733 5730 5728 5726 5723 5721 5718
5763 5763 5762 5760 5759 5758 5756 5755 5754 5753 5752 5751 5751 5750 5748 5747 5746 5745 5744 5742 5741 5740 5738 5737 5736 5734 5733 5732 5731 5729 5726 5724 5721 5719 5717 5714 5711 5708
5755 5754 5753 5752 5750 5749 5747 5746 5745 5744 5743 5742 5742 5741 5739 5738 5737 5736 5735 5734 5732 5731 5730 5728 5727 5725 5724 5722 5721 5720 5718 5715 5712 5710 5707 5705 5702 5699
5747 5746 5744 5743 5742 5740 5739 5737 5736 5735 5734 5734 5733 5732 5731 5730 5729 5727 5726 5725 5724 5723 5721 5719 5717 5716 5714 5713 5711 5709 5707 5705 5703 5700 5698 5695 5693 5690
5738 5737 5736 5735 5733 5732 5731 5729 5728 5727 5726 5725 5724 5723 5721 5721 5720 5718 5717 5716 5715 5714 5712 5710 5708 5706 5705 5703 5701 5699 5696 5694 5692 5690 5688 5686 5683 5680
5729 5728 5727 5726 5725 5723 5722 5721 5719 5718 5717 5716 5715 5714 5712 5711 5710 5709 5708 5707 5705 5704 5702 5700 5698 5697 5695 5693 5691 5688 5686 5684 5682 5679 5677 5675 5673 5669
5720 5719 5718 5717 5715 5714 5713 5711 5710 5709 5708 5707 5706 5704 5703 5702 5701 5699 5698 5696 5695 5693 5692 5690 5687 5685 5684 5682 5680 5677 5675 5673 5670 5668 5666 5663 5661 5659
5710 5709 5708 5707 5706 5704 5703 5702 5701 5700 5698 5697 5696 5695 5693 5692 5691 5689 5687 5686 5684 5682 5680 5678 5676 5674 5672 5670 5668 5666 5663 5661 5658 5656 5654 5652 5650 5647
5701 5699 5698 5697 5695 5694 5693 5691 5690 5689 5688 5687 5686 5685 5683 5682 5680 5678 5676 5675 5672 5670 5669 5667 5664 5661 5659 5658 5656 5655 5652 5649 5646 5644 5642 5640 5638 5636
5691 5689 5687 5686 5684 5683 5682 5681 5679 5678 5677 5676 5675 5674 5672 5671 5669 5667 5665 5663 5661 5658 5656 5654 5652 5650 5648 5646 5644 5642 5640 5637 5634 5631 5629 5628 5625 5623
5680 5678 5676 5675 5673 5672 5671 5670 5668 5668 5666 5665 5664 5663 5661 5659 5658 5655 5653 5651 5649 5647 5644 5642 5640 5638 5635 5633 5631 5629 5627 5625 5623 5620 5618 5615 5613 5611